Regional Weather Roundup
Issued by NWS

Home | Current Version | Previous Version | Graphics & Text | Print | Product List | Glossary On
Versions: 1 2 3 4 5 6 7 8 9 10 11 12 13 14 15 16 17 18 19 20 21 22 23 24 25 26 27 28 29 30 31 32 33 34 35 36 37 38 39 40 41 42 43 44 45 46 47 48 49 50
000
ASUS43 KFSD 161602
RWRSD

WEATHER ROUNDUP FOR SOUTH DAKOTA
NATIONAL WEATHER SERVICE SIOUX FALLS SD
1100 AM CDT TUE SEP 16 2014

NOTE: "FAIR" INDICATES FEW OR NO CLOUDS BELOW 12,000 FEET WITH NO
SIGNIFICANT WEATHER AND/OR OBSTRUCTIONS TO VISIBILITY.


SDZ001>005-009-010-012>017-161700-
NORTHWEST AND NORTH CENTRAL SOUTH DAKOTA

CITY           SKY/WX    TMP DP  RH WIND       PRES   REMARKS
FAITH            N/A     61  46  57 CALM      30.01F
MOBRIDGE       SUNNY     57  45  64 SW5       29.99F
$$

SDZ012>016-024>037-041>051-057-063-072>074-161700-
SOUTHWEST AND SOUTH CENTRAL SOUTH DAKOTA

CITY           SKY/WX    TMP DP  RH WIND       PRES   REMARKS
RAPID CTY ARPT SUNNY     69  47  45 N7        30.03S
PIERRE         SUNNY     61  47  59 S3        29.99F
CUSTER         SUNNY     72  33  24 SW6       30.14S
ELLSWORTH AFB  SUNNY     66  46  48 N2        30.03S
PHILIP         SUNNY     61  49  64 W3        30.00F
PINE RIDGE     SUNNY     63  51  65 W9        30.05S
WINNER         FAIR      64  48  56 SW18G24   30.02F
$$

SDZ004>011-016>023-039-040-161700-
NORTHEAST SOUTH DAKOTA

CITY           SKY/WX    TMP DP  RH WIND       PRES   REMARKS
ABERDEEN       SUNNY     58  46  64 S12G20    30.04F
WATERTOWN      SUNNY     59  46  62 S14       30.10F
SISSETON         N/A     64  43  46 SW12      30.06F
$$

SDZ017-020-022-023-036>040-048>070-161700-
SOUTHEAST SOUTH DAKOTA

CITY           SKY/WX    TMP DP  RH WIND       PRES   REMARKS
SIOUX FALLS    SUNNY     58  45  62 S14       30.15F
HURON          SUNNY     60  45  57 S14G22    30.05F
CHAMBERLAIN    SUNNY     61  49  64 S13       30.04S
MITCHELL       SUNNY     60  48  64 MISG      30.08F
YANKTON        SUNNY     61  46  59 S14G20    30.14F
$$

ABBREVIATIONS USED IN REMARKS
   TC - TEMPERATURE IN CELSIUS
  WCI - WIND CHILL INDEX
   HX - HEAT INDEX
  VSB - VISIBILITY



USA.gov is the U.S. government's official web portal to all federal, state and local government web resources and services.